Torna al catalogo

ARIANE 5 DEB

SYLDA

AttivoHEO
NORAD 44803·DEBRIS·🇫🇷 France

Lanciato Nov 26, 2019 da Guiana Space Centre

Loading…

Prossimi Passaggi (prossime 24 ore)

TLE

AggiornatoSource: Space-Track

Epoca: Sep 14, 2026, 01:16 UTC

1 44803U 19080D   26257.05309006  .00164243  00000-0  40534-2 0  9990
2 44803   5.3243 131.9332 3633942 303.2990  26.9679  8.19796825111216

Traccia ARIANE 5 DEB in tempo reale con AllMySat

Download on the App Store